GW1515 Weather Reports


Display with metric or nautical units.
time (UTC)temp
F
wind
direction
speed
MPH
gust
MPH
rain 1hr
in
rain 24hr
in
rain mn
in
humidity
%
barometer
mb
20260831024723 75 178 4.0 7.0 0.00 0.14 0.14 92 1016.6
20260831024221 75 153 3.0 6.0 0.00 0.14 0.14 92 1016.7
20260831023720 75 214 3.0 7.0 0.00 0.14 0.14 92 1016.9
20260831023219 75 167 3.0 8.0 0.00 0.14 0.14 92 1016.6
20260831022714 75 162 9.0 10.0 0.00 0.14 0.14 92 1016.7
20260831022208 75 169 3.0 5.0 0.00 0.14 0.14 91 1016.9
20260831021703 75 215 3.0 5.0 0.00 0.14 0.14 91 1017.0
20260831021157 75 193 2.0 5.0 0.00 0.14 0.14 91 1016.7
20260831020654 75 215 3.0 5.0 0.00 0.14 0.14 91 1016.6
20260831020153 75 181 4.0 5.0 0.00 0.14 0.14 91 1016.9
20260831015649 75 172 2.0 2.0 0.00 0.14 0.14 91 1016.8
20260831015149 75 162 2.0 3.0 0.00 0.14 0.14 91 1016.8
20260831014644 75 72 0.0 2.0 0.00 0.14 0.14 91 1016.7
20260831014139 75 209 0.0 2.0 0.00 0.14 0.14 91 1016.6
20260831013636 76 181 1.0 2.0 0.00 0.14 0.14 91 1016.9
20260831013135 76 180 0.0 3.0 0.00 0.14 0.14 90 1016.7
20260831012630 76 217 3.0 5.0 0.00 0.14 0.14 90 1016.3
20260831012125 76 211 2.0 9.0 0.00 0.14 0.14 90 1016.3
20260831011624 76 161 3.0 7.0 0.00 0.14 0.14 90 1015.9
20260831011120 76 185 4.0 7.0 0.00 0.14 0.14 91 1015.9
20260831010616 76 187 1.0 5.0 0.00 0.14 0.14 91 1016.1
20260831010111 76 235 2.0 4.0 0.00 0.14 0.14 90 1015.9
20260831005611 76 180 4.0 7.0 0.00 0.14 0.14 91 1015.8
20260831005106 76 141 5.0 8.0 0.00 0.14 0.14 91 1015.8
20260831004602 76 141 6.0 8.0 0.00 0.14 0.14 91 1015.8
20260831004057 76 147 3.0 6.0 0.00 0.14 0.14 91 1015.9
20260831003554 76 144 3.0 6.0 0.00 0.14 0.14 91 1015.9
20260831003049 76 166 3.0 6.0 0.00 0.14 0.14 91 1016.0
20260831002548 76 148 3.0 8.0 0.00 0.14 0.14 91 1016.3
20260831002043 76 164 1.0 4.0 0.00 0.14 0.14 91 1016.6
20260831001538 76 209 2.0 5.0 0.00 0.14 0.14 90 1016.7
20260831001035 76 180 2.0 3.0 0.00 0.14 0.14 91 1016.2
20260831000531 76 156 3.0 5.0 0.00 0.14 0.14 91 1016.4
20260831000030 76 138 2.0 5.0 0.00 0.14 0.14 91 1016.4
20260830235524 76 155 4.0 4.0 0.00 0.14 0.14 91 1016.3
20260830235019 76 123 4.0 4.0 0.00 0.14 0.14 91 1016.3
20260830234514 76 149 3.0 5.0 0.00 0.14 0.14 91 1016.7
20260830234009 76 141 1.0 7.0 0.00 0.14 0.14 91 1016.5
20260830233505 76 114 4.0 11.0 0.00 0.14 0.14 91 1016.5
20260830233001 76 123 4.0 7.0 0.00 0.14 0.14 91 1016.7
20260830232456 76 137 5.0 6.0 0.02 0.14 0.14 91 1016.7
20260830231952 76 136 3.0 4.0 0.02 0.14 0.14 91 1016.4
20260830231448 77 138 4.0 5.0 0.00 0.13 0.13 89 1016.7
20260830230947 77 170 1.0 2.0 0.00 0.13 0.13 89 1016.9
20260830230442 77 152 2.0 4.0 0.00 0.13 0.13 88 1017.1
20260830225941 77 169 2.0 3.0 0.00 0.13 0.13 87 1017.2
20260830225438 77 124 2.0 5.0 0.00 0.13 0.13 87 1017.1
20260830224937 77 161 2.0 4.0 0.00 0.13 0.13 86 1017.2
20260830224436 78 218 3.0 4.0 0.00 0.13 0.13 85 1017.4
20260830223932 78 204 2.0 4.0 0.00 0.13 0.13 85 1017.4
20260830223429 78 174 2.0 3.0 0.00 0.13 0.13 84 1016.8
20260830222928 78 173 1.0 5.0 0.00 0.13 0.13 84 1016.8
20260830222423 78 192 0.0 5.0 0.00 0.13 0.13 84 1016.9
20260830221919 78 158 1.0 5.0 0.00 0.13 0.13 84 1016.8
20260830221415 78 165 2.0 4.0 0.00 0.13 0.13 85 1016.5
20260830220910 78 150 2.0 5.0 0.00 0.13 0.13 85 1016.7
20260830220410 77 108 4.0 5.0 0.00 0.13 0.13 85 1016.5
20260830215908 78 109 4.0 5.0 0.00 0.13 0.13 84 1016.7
20260830215403 78 147 2.0 6.0 0.00 0.13 0.13 82 1016.8
20260830214857 78 130 3.0 6.0 0.00 0.13 0.13 82 1016.8
20260830214352 78 157 4.0 6.0 0.00 0.13 0.13 81 1016.7
20260830213847 79 132 3.0 5.0 0.00 0.13 0.13 80 1017.0
20260830213342 79 171 2.0 4.0 0.00 0.13 0.13 80 1016.9
20260830212838 79 173 3.0 5.0 0.00 0.13 0.13 79 1016.9
20260830212334 79 202 3.0 3.0 0.00 0.13 0.13 79 1016.8
20260830211832 80 186 2.0 4.0 0.00 0.13 0.13 79 1017.2
20260830211327 80 222 2.0 2.0 0.00 0.13 0.13 78 1017.1
20260830210823 80 210 2.0 3.0 0.00 0.13 0.13 76 1017.1
20260830210321 80 336 0.0 2.0 0.00 0.13 0.13 76 1017.1
20260830205820 80 344 2.0 4.0 0.00 0.13 0.13 75 1017.2
20260830205319 80 199 2.0 2.0 0.00 0.13 0.13 76 1017.4
20260830204815 81 180 0.0 1.0 0.00 0.13 0.13 76 1017.2
20260830204314 80 285 1.0 2.0 0.00 0.13 0.13 78 1017.1
20260830203810 79 291 0.0 4.0 0.00 0.13 0.13 78 1017.2
20260830203306 79 345 2.0 3.0 0.00 0.13 0.13 80 1017.4
20260830202805 78 155 3.0 5.0 0.00 0.13 0.13 80 1017.1
20260830202301 78 223 2.0 5.0 0.00 0.13 0.13 80 1017.2
20260830201801 78 187 3.0 5.0 0.00 0.13 0.13 79 1017.4
20260830201255 79 216 2.0 3.0 0.00 0.13 0.13 79 1017.4
20260830200751 78 267 1.0 4.0 0.00 0.13 0.13 80 1017.5
20260830200250 78 288 3.0 6.0 0.00 0.13 0.13 80 1017.2
20260830195746 78 228 3.0 4.0 0.00 0.13 0.13 80 1016.8
20260830195244 78 205 3.0 4.0 0.00 0.13 0.13 81 1016.8
20260830194742 78 174 2.0 5.0 0.00 0.13 0.13 81 1016.8
20260830194237 78 195 2.0 6.0 0.00 0.13 0.13 81 1016.8
20260830193731 78 197 3.0 8.0 0.00 0.13 0.13 80 1016.9
20260830193226 78 213 4.0 10.0 0.00 0.13 0.13 79 1017.0
20260830192722 78 228 3.0 12.0 0.00 0.13 0.13 79 1016.7
20260830192217 78 225 6.0 11.0 0.00 0.13 0.13 79 1016.7
20260830191713 78 205 4.0 11.0 0.00 0.13 0.13 78 1016.9
20260830191212 78 209 8.0 10.0 0.00 0.13 0.13 77 1016.6
20260830190708 79 211 8.0 10.0 0.00 0.13 0.13 76 1016.8
20260830190203 79 230 2.0 11.0 0.00 0.13 0.13 76 1016.7
20260830185701 79 204 3.0 13.0 0.00 0.13 0.13 76 1016.6
20260830185157 79 236 4.0 19.0 0.00 0.13 0.13 76 1016.7
20260830184656 80 218 8.0 19.0 0.00 0.13 0.13 74 1016.4
20260830184156 80 228 9.0 13.0 0.00 0.13 0.13 74 1016.4
20260830183651 81 245 3.0 11.0 0.00 0.13 0.13 75 1016.4
20260830183146 80 217 8.0 23.0 0.00 0.13 0.13 74 1016.0
20260830182647 80 209 11.0 13.0 0.00 0.13 0.13 74 1016.1
20260830182143 79 214 5.0 15.0 0.00 0.13 0.13 76 1016.0
20260830181639 80 222 4.0 18.0 0.00 0.13 0.13 74 1016.2
20260830181139 80 208 6.0 15.0 0.00 0.13 0.13 74 1016.2
20260830180638 79 200 8.0 19.0 0.00 0.13 0.13 75 1016.0
20260830180132 80 224 5.0 14.0 0.00 0.13 0.13 75 1016.0
20260830175631 79 220 6.0 15.0 0.00 0.13 0.13 75 1016.3
20260830175127 79 214 15.0 15.0 0.00 0.13 0.13 74 1016.6
20260830174622 78 201 5.0 10.0 0.00 0.13 0.13 76 1016.6
20260830174118 79 192 6.0 20.0 0.00 0.13 0.13 75 1016.5
20260830173613 78 206 2.0 17.0 0.00 0.13 0.13 77 1016.7
20260830173108 78 207 10.0 15.0 0.00 0.13 0.13 76 1016.7
20260830172605 77 202 8.0 17.0 0.00 0.13 0.13 77 1016.3
20260830172101 77 236 7.0 16.0 0.00 0.13 0.13 77 1016.5
20260830171555 77 196 10.0 20.0 0.00 0.13 0.13 79 1016.5
20260830171050 77 206 12.0 15.0 0.00 0.13 0.13 79 1016.5
20260830170550 78 185 4.0 18.0 0.00 0.13 0.13 78 1016.6
20260830170049 76 142 10.0 22.0 0.00 0.13 0.13 79 1016.4
20260830165545 76 201 9.0 16.0 0.00 0.13 0.13 81 1016.6
20260830165040 75 221 6.0 19.0 0.00 0.13 0.13 81 1016.7
20260830164536 75 210 11.0 18.0 0.00 0.13 0.13 80 1016.7
20260830164032 75 200 10.0 13.0 0.00 0.13 0.13 80 1017.1
20260830163529 76 193 9.0 16.0 0.00 0.13 0.13 79 1016.9
20260830163028 76 233 6.0 14.0 0.00 0.13 0.13 79 1016.8
20260830162524 76 198 14.0 21.0 0.00 0.13 0.13 78 1017.0
20260830162024 75 209 11.0 19.0 0.00 0.13 0.13 79 1016.9
20260830161519 75 207 15.0 19.0 0.00 0.13 0.13 80 1016.7
20260830161014 74 212 4.0 12.0 0.00 0.13 0.13 83 1016.7
20260830160510 74 193 5.0 11.0 0.00 0.13 0.13 82 1016.6
20260830160005 73 223 3.0 16.0 0.00 0.13 0.13 84 1016.6
20260830155501 73 195 5.0 15.0 0.00 0.13 0.13 85 1016.2
20260830154956 73 222 2.0 12.0 0.00 0.13 0.13 87 1016.4
20260830154452 72 167 5.0 16.0 0.00 0.13 0.13 86 1016.0
20260830153948 72 199 5.0 11.0 0.00 0.13 0.13 87 1016.0
20260830153444 72 183 6.0 10.0 0.00 0.13 0.13 89 1016.3
20260830152943 71 168 4.0 9.0 0.00 0.13 0.13 89 1016.4
20260830152438 71 191 8.0 15.0 0.00 0.13 0.13 89 1016.0
20260830151937 70 160 5.0 10.0 0.00 0.13 0.13 91 1016.5
20260830151431 70 168 12.0 12.0 0.02 0.13 0.13 91 1016.3
20260830150926 69 176 8.0 13.0 0.05 0.13 0.13 92 1016.6
20260830150426 69 207 1.0 11.0 0.02 0.13 0.13 93 1016.7
20260830145921 69 156 12.0 12.0 0.00 0.13 0.13 92 1016.6
20260830145420 69 190 7.0 12.0 0.00 0.13 0.13 93 1016.6
20260830144916 69 176 4.0 10.0 0.00 0.13 0.13 94 1017.0
20260830144412 69 190 3.0 11.0 0.00 0.13 0.13 94 1016.9
20260830143907 68 189 4.0 10.0 0.00 0.13 0.13 94 1016.9
20260830143402 68 212 11.0 16.0 0.00 0.13 0.13 94 1016.9
20260830142901 68 233 3.0 9.0 0.00 0.13 0.13 95 1016.8
20260830142356 68 201 4.0 9.0 0.00 0.13 0.13 95 1016.8
20260830141851 67 151 4.0 7.0 0.02 0.13 0.13 96 1016.8
20260830141347 67 222 3.0 9.0 0.05 0.13 0.13 96 1016.6
20260830140842 67 177 3.0 11.0 0.17 0.12 0.12 96 1016.6
20260830140336 67 179 4.0 9.0 0.14 0.11 0.11 96 1016.8
20260830135836 67 183 4.0 9.0 0.00 0.09 0.09 96 1017.1
20260830135332 67 197 3.0 10.0 0.00 0.09 0.09 96 1017.1
20260830134827 67 164 4.0 7.0 0.00 0.09 0.09 96 1017.6
20260830134322 67 183 5.0 8.0 0.00 0.09 0.09 96 1017.6
20260830133818 67 180 2.0 8.0 0.05 0.09 0.09 96 1017.9
20260830133314 67 196 4.0 8.0 0.09 0.09 0.09 96 1017.8
20260830132809 67 180 5.0 9.0 0.09 0.08 0.08 96 1017.9
20260830132306 67 205 2.0 7.0 0.07 0.07 0.07 96 1018.1
20260830131803 67 205 5.0 7.0 0.07 0.07 0.07 95 1018.3
20260830131258 67 198 2.0 7.0 0.07 0.06 0.06 95 1018.1
20260830130753 67 175 2.0 7.0 0.07 0.06 0.06 95 1018.4
20260830130248 67 185 4.0 7.0 0.07 0.05 0.05 94 1018.6
20260830125747 68 191 3.0 5.0 0.02 0.04 0.04 94 1018.5
20260830125243 68 169 5.0 7.0 0.02 0.04 0.04 93 1018.4
20260830124740 68 201 4.0 6.0 0.02 0.04 0.04 93 1018.4
20260830124236 68 111 5.0 6.0 0.00 0.04 0.04 93 1018.2
20260830123733 68 197 3.0 5.0 0.02 0.04 0.04 93 1018.2
20260830123229 68 200 3.0 7.0 0.02 0.04 0.04 92 1018.3
20260830122727 68 221 3.0 6.0 0.00 0.03 0.03 92 1018.3
20260830122227 68 229 0.0 7.0 0.00 0.03 0.03 92 1018.1
20260830121722 68 203 6.0 10.0 0.00 0.03 0.03 91 1018.0
20260830121221 68 209 5.0 6.0 0.02 0.03 0.03 92 1018.0
20260830120716 68 211 3.0 7.0 0.02 0.03 0.03 91 1017.7
20260830120212 68 210 3.0 7.0 0.00 0.03 0.03 91 1017.8
20260830115708 68 222 4.0 7.0 0.02 0.03 0.03 92 1017.6
20260830115204 68 244 1.0 4.0 0.09 0.03 0.03 91 1017.7
20260830114701 69 206 3.0 10.0 0.09 0.02 0.02 90 1017.5
20260830114200 69 217 3.0 7.0 0.00 0.01 0.01 87 1017.5
20260830113655 69 183 7.0 12.0 0.00 0.01 0.01 86 1017.1
20260830113150 70 189 2.0 12.0 0.00 0.01 0.01 86 1016.8
20260830112647 69 195 3.0 11.0 0.00 0.01 0.01 86 1016.8
20260830112142 69 206 6.0 14.0 0.00 0.01 0.01 86 1016.7
20260830111638 69 211 5.0 10.0 0.00 0.01 0.01 87 1016.7
20260830111133 69 172 2.0 10.0 0.02 0.01 0.01 87 1016.6
20260830110628 69 199 3.0 9.0 0.00 0.00 0.00 87 1016.6
20260830110124 69 173 4.0 7.0 0.00 0.00 0.00 87 1016.5
20260830105618 69 177 4.0 10.0 0.00 0.00 0.00 87 1016.5
20260830105114 69 174 4.0 12.0 0.02 0.00 0.00 87 1016.5
20260830104611 69 170 5.0 9.0 0.02 0.00 0.00 87 1016.5
20260830104108 69 186 6.0 9.0 0.00 0.00 0.00 85 1016.6
20260830103606 70 155 2.0 7.0 0.00 0.00 0.00 84 1016.5
20260830103101 70 201 3.0 7.0 0.00 0.00 0.00 83 1016.6
20260830102600 70 143 4.0 12.0 0.00 0.00 0.00 83 1016.5
20260830102056 70 145 3.0 6.0 0.00 0.00 0.00 83 1016.4
20260830101552 70 164 7.0 9.0 0.00 0.00 0.00 83 1016.4
20260830101046 69 151 3.0 9.0 0.00 0.00 0.00 83 1016.2
20260830100545 69 149 6.0 8.0 0.00 0.00 0.00 83 1016.3
20260830100045 69 211 2.0 5.0 0.00 0.00 0.00 83 1016.2
20260830095540 70 153 5.0 9.0 0.00 0.00 0.00 82 1016.1
20260830095036 70 163 3.0 9.0 0.00 0.00 0.00 82 1016.2
20260830094532 70 147 3.0 7.0 0.00 0.00 0.00 82 1016.2
20260830094032 70 172 4.0 10.0 0.00 0.00 0.00 82 1016.4
20260830093527 70 162 3.0 8.0 0.00 0.00 0.00 82 1016.2
20260830093024 70 146 4.0 5.0 0.00 0.00 0.00 82 1016.2
20260830092518 70 179 3.0 7.0 0.00 0.00 0.00 81 1016.3
20260830092015 70 169 2.0 8.0 0.00 0.00 0.00 81 1016.4
20260830091510 70 174 4.0 8.0 0.00 0.00 0.00 80 1016.4
20260830091009 70 167 3.0 10.0 0.00 0.00 0.00 80 1016.6
20260830090504 70 141 4.0 10.0 0.00 0.00 0.00 80 1016.4
20260830085959 70 129 4.0 7.0 0.00 0.00 0.00 79 1016.4
20260830085454 70 161 3.0 9.0 0.00 0.00 0.00 79 1016.4
20260830084949 70 153 6.0 8.0 0.00 0.00 0.00 79 1016.5
20260830084445 71 197 2.0 11.0 0.00 0.00 0.00 78 1016.5
20260830083940 71 198 5.0 11.0 0.00 0.00 0.00 78 1016.6
20260830083435 71 163 3.0 13.0 0.00 0.00 0.00 78 1016.4
20260830082935 71 197 4.0 8.0 0.00 0.00 0.00 77 1016.6
20260830082431 71 149 6.0 10.0 0.00 0.00 0.00 77 1016.6
20260830081925 71 172 3.0 11.0 0.00 0.00 0.00 77 1016.6
20260830081420 71 151 2.0 8.0 0.00 0.00 0.00 77 1016.6
20260830080919 71 213 2.0 7.0 0.00 0.00 0.00 77 1016.7
20260830080416 71 221 3.0 6.0 0.00 0.00 0.00 77 1016.7
20260830075915 71 167 4.0 7.0 0.00 0.00 0.00 76 1016.5
20260830075410 71 204 5.0 10.0 0.00 0.00 0.00 76 1016.6
20260830074906 71 159 5.0 10.0 0.00 0.00 0.00 75 1016.5
20260830074401 71 213 5.0 10.0 0.00 0.00 0.00 75 1016.9
20260830073857 71 186 4.0 15.0 0.00 0.00 0.00 75 1016.5
20260830073353 72 177 5.0 10.0 0.00 0.00 0.00 75 1016.6
20260830072848 72 184 4.0 9.0 0.00 0.00 0.00 75 1016.5
20260830072343 72 212 5.0 12.0 0.00 0.00 0.00 75 1016.8
20260830071838 72 203 5.0 10.0 0.00 0.00 0.00 74 1016.6
20260830071337 72 231 4.0 14.0 0.00 0.00 0.00 74 1016.7
20260830070836 72 191 7.0 10.0 0.00 0.00 0.00 74 1016.9
20260830070331 72 165 6.0 10.0 0.00 0.00 0.00 73 1016.9
20260830065830 72 201 5.0 11.0 0.00 0.00 0.00 73 1016.7
20260830065325 72 189 4.0 10.0 0.00 0.00 0.00 73 1016.8
20260830064823 72 204 4.0 10.0 0.00 0.00 0.00 73 1016.9
20260830064318 72 175 5.0 11.0 0.00 0.00 0.00 73 1016.9
20260830063813 72 194 13.0 16.0 0.00 0.00 0.00 73 1016.8
20260830063308 72 192 4.0 12.0 0.00 0.00 0.00 73 1016.9
20260830062802 72 163 5.0 13.0 0.00 0.00 0.00 73 1017.0
20260830062305 72 208 5.0 9.0 0.00 0.00 0.00 73 1017.1
20260830061756 72 220 2.0 12.0 0.00 0.00 0.00 74 1017.1
20260830061252 72 167 3.0 10.0 0.00 0.00 0.00 74 1017.2
20260830060748 72 217 4.0 11.0 0.00 0.00 0.00 74 1017.1
20260830060245 73 191 6.0 17.0 0.00 0.00 0.00 73 1017.4
20260830055739 72 148 1.0 9.0 0.00 0.00 0.00 74 1017.2
20260830055236 72 167 7.0 10.0 0.00 0.00 0.00 74 1017.4
20260830054730 73 177 3.0 14.0 0.00 0.00 0.00 73 1017.4
20260830054226 73 190 4.0 14.0 0.00 0.00 0.00 73 1017.2
20260830053722 73 168 8.0 13.0 0.00 0.00 0.00 74 1017.2
20260830053221 73 171 7.0 11.0 0.00 0.00 0.00 74 1017.2
20260830052716 73 172 4.0 13.0 0.00 0.00 0.00 74 1017.4
20260830052211 73 195 5.0 13.0 0.00 0.00 0.00 74 1017.2
20260830051711 73 173 5.0 12.0 0.00 0.00 0.00 74 1017.4
20260830051207 73 156 6.0 10.0 0.00 0.00 0.00 75 1017.5
20260830050705 73 175 6.0 14.0 0.00 0.00 0.00 75 1017.5
20260830050201 73 180 3.0 11.0 0.00 0.00 0.00 75 1017.5
20260830045659 73 188 9.0 14.0 0.00 0.00 0.00 75 1017.6
20260830045155 73 196 8.0 13.0 0.00 0.00 0.00 75 1017.7
20260830044653 73 167 11.0 11.0 0.00 0.00 0.00 75 1017.5
20260830044149 73 147 5.0 15.0 0.00 0.00 0.00 75 1017.7
20260830043650 73 209 4.0 14.0 0.00 0.00 0.00 75 1017.6
20260830043149 73 161 3.0 14.0 0.00 0.00 0.00 75 1017.6
20260830042646 73 198 8.0 14.0 0.00 0.00 0.00 75 1017.5
20260830042142 73 180 6.0 14.0 0.00 0.00 0.00 76 1017.9
20260830041640 73 200 7.0 13.0 0.00 0.00 0.00 76 1017.7
20260830041140 73 185 11.0 12.0 0.00 0.00 0.00 77 1017.5
20260830040636 73 177 3.0 14.0 0.00 0.00 0.00 77 1017.8
20260830040132 73 188 5.0 11.0 0.00 0.00 0.00 78 1017.5
20260830035629 73 157 4.0 12.0 0.00 0.00 0.00 78 1018.0
20260830035125 72 146 7.0 11.0 0.00 0.00 0.00 79 1018.0
20260830034620 72 151 6.0 11.0 0.00 0.00 0.00 79 1018.1
20260830034119 72 207 5.0 10.0 0.00 0.00 0.00 80 1017.9
20260830033615 72 166 5.0 8.0 0.00 0.00 0.00 80 1017.7
20260830033110 72 161 5.0 12.0 0.00 0.00 0.00 80 1017.8
20260830032609 72 214 2.0 9.0 0.00 0.00 0.00 80 1017.9
20260830032105 72 195 6.0 7.0 0.00 0.00 0.00 81 1017.9
20260830031600 72 151 4.0 11.0 0.00 0.00 0.00 81 1017.8
20260830031055 72 172 2.0 9.0 0.00 0.00 0.00 81 1017.8
20260830030551 72 156 5.0 7.0 0.00 0.00 0.00 81 1017.8
20260830030046 72 142 4.0 7.0 0.00 0.00 0.00 81 1018.1
20260830025544 72 154 3.0 9.0 0.00 0.00 0.00 81 1018.1
20260830025039 72 165 5.0 10.0 0.00 0.00 0.00 81 1018.0